When you browse on this site, cookies collect data to enhance your experience and personalize the content and advertising you see.
Visit our Privacy Policy to learn more. By continuing to use the site, you agree to this use of cookies and data.
  • Em Portugal
  • Lista de países
  • Para 7 dias
  • Temperatura da água
  • Mapa do tempo
  • Widgets de tempo
  • user-avatar
    Iniciar Sessão

    Previsão horária em Poroshino

    Hoje, 20 Janeiro, Segunda-feira

    Tempo Temperatura Precipitação Vento Pressão Humidade
    00:00 0°C° 0 mm 4 m/s 764 mmHg 88%
    01:00 0°C° 0 mm 4 m/s 764 mmHg 87%
    02:00 0°C° 0 mm 4 m/s 765 mmHg 88%
    03:00 0°C° 0 mm 4 m/s 765 mmHg 87%
    04:00 0°C° 0 mm 4 m/s 765 mmHg 86%
    05:00 -1°C° 0 mm 4 m/s 765 mmHg 86%
    06:00 0°C° 0 mm 4 m/s 765 mmHg 85%
    07:00 0°C° 0 mm 4 m/s 765 mmHg 84%
    08:00 0°C° 0 mm 4 m/s 765 mmHg 83%
    09:00 0°C° 0 mm 4 m/s 765 mmHg 82%
    10:00 0°C° 0 mm 4 m/s 765 mmHg 81%
    11:00 0°C° 0 mm 5 m/s 765 mmHg 80%
    12:00 +1°C° 0 mm 5 m/s 765 mmHg 78%
    13:00 +1°C° 0 mm 5 m/s 764 mmHg 76%
    14:00 +1°C° 0 mm 5 m/s 764 mmHg 73%
    15:00 +1°C° 0 mm 5 m/s 764 mmHg 74%
    16:00 0°C° 0 mm 5 m/s 763 mmHg 74%
    17:00 0°C° 0 mm 5 m/s 763 mmHg 74%
    18:00 0°C° 0 mm 5 m/s 762 mmHg 75%
    19:00 0°C° 0 mm 5 m/s 762 mmHg 76%
    20:00 0°C° 0 mm 5 m/s 761 mmHg 77%
    21:00 0°C° 0 mm 5 m/s 760 mmHg 79%
    22:00 0°C° 0 mm 5 m/s 760 mmHg 81%
    23:00 +1°C° 0 mm 5 m/s 759 mmHg 84%

    Amanhã, 21 Janeiro, Terça-feira

    Tempo Temperatura Precipitação Vento Pressão Humidade
    00:00 +1°C° 0 mm 5 m/s 759 mmHg 84%
    01:00 +1°C° 0 mm 5 m/s 758 mmHg 85%
    02:00 +2°C° 0 mm 5 m/s 757 mmHg 86%
    03:00 +2°C° 0 mm 5 m/s 756 mmHg 87%
    04:00 +2°C° 0 mm 6 m/s 756 mmHg 88%
    05:00 +3°C° 0 mm 6 m/s 755 mmHg 89%
    06:00 +3°C° 0 mm 6 m/s 754 mmHg 89%
    07:00 +3°C° 0 mm 6 m/s 754 mmHg 89%
    08:00 +4°C° 0 mm 6 m/s 753 mmHg 88%
    09:00 +4°C° 0 mm 6 m/s 752 mmHg 88%
    10:00 +4°C° 0 mm 6 m/s 752 mmHg 87%
    11:00 +5°C° 0 mm 6 m/s 751 mmHg 87%
    12:00 +5°C° 0.2 mm 6 m/s 750 mmHg 86%
    13:00 +5°C° 0.2 mm 6 m/s 750 mmHg 86%
    14:00 +5°C° 0.2 mm 6 m/s 749 mmHg 85%
    15:00 +4°C° 1.3 mm 6 m/s 749 mmHg 84%
    16:00 +3°C° 1.3 mm 6 m/s 749 mmHg 84%
    17:00 +2°C° 1.3 mm 6 m/s 749 mmHg 83%
    18:00 +1°C° 0 mm 6 m/s 750 mmHg 79%
    19:00 +1°C° 0 mm 6 m/s 751 mmHg 75%
    20:00 -1°C° 0 mm 6 m/s 751 mmHg 71%
    21:00 -1°C° 0 mm 6 m/s 751 mmHg 71%
    22:00 -1°C° 0 mm 6 m/s 750 mmHg 71%
    23:00 -2°C° 0 mm 6 m/s 750 mmHg 71%

    Depois de amanhã, 22 Janeiro, Quarta-feira

    Tempo Temperatura Precipitação Vento Pressão Humidade
    00:00 -2°C° 0 mm 6 m/s 749 mmHg 70%
    01:00 -2°C° 0 mm 6 m/s 749 mmHg 69%
    02:00 -2°C° 0 mm 6 m/s 748 mmHg 67%
    03:00 -2°C° 0 mm 6 m/s 748 mmHg 71%
    04:00 -2°C° 0 mm 6 m/s 747 mmHg 74%
    05:00 -2°C° 0 mm 6 m/s 746 mmHg 77%
    06:00 -2°C° 0.1 mm 6 m/s 746 mmHg 76%
    07:00 -2°C° 0.1 mm 6 m/s 745 mmHg 75%
    08:00 -1°C° 0.1 mm 5 m/s 745 mmHg 73%
    09:00 -2°C° 0 mm 6 m/s 745 mmHg 70%
    10:00 -2°C° 0 mm 6 m/s 745 mmHg 66%
    11:00 -2°C° 0 mm 6 m/s 745 mmHg 63%
    12:00 -2°C° 0 mm 6 m/s 745 mmHg 67%
    13:00 -2°C° 0 mm 6 m/s 746 mmHg 71%
    14:00 -2°C° 0 mm 6 m/s 746 mmHg 74%
    15:00 -2°C° 0 mm 6 m/s 747 mmHg 73%
    16:00 -2°C° 0 mm 6 m/s 747 mmHg 71%
    17:00 -1°C° 0 mm 5 m/s 748 mmHg 69%
    18:00 -2°C° 0 mm 5 m/s 749 mmHg 66%
    19:00 -4°C° 0 mm 5 m/s 750 mmHg 64%
    20:00 -5°C° 0 mm 5 m/s 750 mmHg 61%
    21:00 -5°C° 0 mm 5 m/s 751 mmHg 59%
    22:00 -5°C° 0 mm 5 m/s 752 mmHg 58%
    23:00 -5°C° 0 mm 5 m/s 753 mmHg 56%

    23 Janeiro, Quinta-feira

    Tempo Temperatura Precipitação Vento Pressão Humidade
    00:00 -5°C° 0 mm 5 m/s 753 mmHg 56%
    01:00 -5°C° 0 mm 5 m/s 754 mmHg 56%
    02:00 -5°C° 0 mm 5 m/s 755 mmHg 55%
    03:00 -5°C° 0 mm 5 m/s 755 mmHg 55%
    04:00 -5°C° 0 mm 5 m/s 755 mmHg 54%
    05:00 -5°C° 0 mm 5 m/s 756 mmHg 54%
    06:00 -5°C° 0 mm 5 m/s 756 mmHg 56%
    07:00 -4°C° 0 mm 5 m/s 756 mmHg 58%
    08:00 -4°C° 0 mm 5 m/s 756 mmHg 60%
    09:00 -4°C° 0 mm 5 m/s 757 mmHg 60%
    10:00 -2°C° 0 mm 5 m/s 757 mmHg 60%
    11:00 -2°C° 0 mm 5 m/s 757 mmHg 60%
    12:00 -2°C° 0 mm 5 m/s 757 mmHg 61%
    13:00 -2°C° 0 mm 4 m/s 758 mmHg 62%
    14:00 -2°C° 0 mm 4 m/s 758 mmHg 63%
    15:00 -1°C° 0 mm 3 m/s 757 mmHg 66%
    16:00 -1°C° 0 mm 3 m/s 757 mmHg 69%
    17:00 -2°C° 0 mm 2 m/s 757 mmHg 72%
    18:00 -1°C° 0 mm 3 m/s 756 mmHg 74%
    19:00 -1°C° 0 mm 3 m/s 755 mmHg 76%
    20:00 -1°C° 0 mm 3 m/s 755 mmHg 78%
    21:00 -2°C° 0 mm 4 m/s 754 mmHg 75%
    22:00 -1°C° 0 mm 4 m/s 753 mmHg 72%
    23:00 -1°C° 0 mm 5 m/s 753 mmHg 69%

    24 Janeiro, Sexta-feira

    Tempo Temperatura Precipitação Vento Pressão Humidade
    00:00 -1°C° 0 mm 5 m/s 752 mmHg 75%
    01:00 -1°C° 0 mm 4 m/s 751 mmHg 80%
    02:00 -1°C° 0 mm 4 m/s 751 mmHg 85%
    03:00 0°C° 0 mm 4 m/s 750 mmHg 88%
    04:00 +1°C° 0 mm 4 m/s 750 mmHg 90%
    05:00 +1°C° 0 mm 4 m/s 749 mmHg 93%
    06:00 +3°C° 0 mm 4 m/s 749 mmHg 92%
    07:00 +3°C° 0 mm 4 m/s 749 mmHg 92%
    08:00 +3°C° 0 mm 4 m/s 748 mmHg 92%
    09:00 +3°C° 0 mm 4 m/s 748 mmHg 92%
    10:00 +3°C° 0 mm 4 m/s 748 mmHg 91%
    11:00 +3°C° 0 mm 4 m/s 748 mmHg 91%
    12:00 +3°C° 0 mm 4 m/s 748 mmHg 90%
    13:00 +3°C° 0 mm 4 m/s 747 mmHg 90%
    14:00 +3°C° 0 mm 4 m/s 747 mmHg 89%
    15:00 +3°C° 0 mm 4 m/s 747 mmHg 89%
    16:00 +3°C° 0 mm 4 m/s 747 mmHg 89%
    17:00 +3°C° 0 mm 4 m/s 746 mmHg 89%
    18:00 +3°C° 0.5 mm 4 m/s 746 mmHg 90%
    19:00 +4°C° 0.5 mm 4 m/s 746 mmHg 90%
    20:00 +3°C° 0.5 mm 5 m/s 746 mmHg 91%
    21:00 +3°C° 0.8 mm 5 m/s 746 mmHg 91%
    22:00 +4°C° 0.8 mm 4 m/s 746 mmHg 91%
    23:00 +4°C° 0.8 mm 4 m/s 746 mmHg 91%

    25 Janeiro, Sábado

    Tempo Temperatura Precipitação Vento Pressão Humidade
    00:00 +4°C° 0.2 mm 4 m/s 746 mmHg 91%
    01:00 +4°C° 0.2 mm 4 m/s 746 mmHg 92%
    02:00 +4°C° 0.2 mm 4 m/s 746 mmHg 92%
    03:00 +4°C° 0.1 mm 4 m/s 746 mmHg 91%
    04:00 +4°C° 0.1 mm 4 m/s 747 mmHg 91%
    05:00 +4°C° 0.1 mm 4 m/s 747 mmHg 90%
    06:00 +3°C° 0 mm 4 m/s 747 mmHg 88%
    07:00 +3°C° 0 mm 4 m/s 747 mmHg 86%
    08:00 +3°C° 0 mm 4 m/s 748 mmHg 83%
    09:00 +3°C° 0 mm 4 m/s 748 mmHg 82%
    10:00 +3°C° 0 mm 4 m/s 749 mmHg 82%
    11:00 +3°C° 0 mm 4 m/s 749 mmHg 81%
    12:00 +3°C° 0 mm 3 m/s 750 mmHg 79%
    13:00 +3°C° 0 mm 3 m/s 750 mmHg 76%
    14:00 +3°C° 0 mm 3 m/s 750 mmHg 74%
    15:00 +2°C° 0 mm 3 m/s 750 mmHg 79%
    16:00 +2°C° 0 mm 2 m/s 750 mmHg 83%
    17:00 +1°C° 0 mm 2 m/s 750 mmHg 88%
    18:00 +2°C° 0 mm 2 m/s 750 mmHg 87%
    19:00 +2°C° 0 mm 2 m/s 750 mmHg 87%
    20:00 +2°C° 0 mm 2 m/s 750 mmHg 86%
    21:00 +2°C° 0 mm 2 m/s 751 mmHg 84%
    22:00 +1°C° 0 mm 3 m/s 751 mmHg 82%
    23:00 +1°C° 0 mm 3 m/s 751 mmHg 79%
    Mostrar mais